sat.trackr.live / text

‹ back to catalog

STARLINK-34882

NORAD 66227 · 2025-244X

PAYLOAD ACTIVE UNKNOWN

§ Identity

Operator
Country
US
Launch date
2025-10-28
Launch site
AFWTR
Launch vehicle
Mass (kg)
RCS (m²)

Purposes: comms

External: N2YO · Heavens-Above · Gunter

§ Orbital elements

Epoch: 2026-05-24T14:32:28.405248Z

Period
94.11 min
Inclination
53.1571°
Eccentricity
0.0001284
Mean motion
15.30189068 rev/d
Perigee alt
474.4 km
Apogee alt
476.1 km
Semi-major
6,853.4 km
B*
3.3370e-4
RAAN
237.2123°
Arg perigee
86.4028°
Mean anomaly
273.7120°
Rev number
3,328

§ Raw data

STARLINK-348821 66227U 25244X   26144.60588432  .00009534  00000+0  33370-3 0  99922 66227  53.1571 237.2123 0001284  86.4028 273.7120 15.30189068 33289

JSON: /api/v1/satellites/66227 · /tle

For live sub-satellite position, see the globe view (requires WebGL).

§ Visibility from observer

Set your observer location to see the next 7 days of passes ≥ 10°. The values pass through the URL so the page stays shareable.

No JS? Fill the form by hand. The geolocation button needs JavaScript.